Regional Weather Roundup
Issued by NWS

Home | Current Version | Previous Version | Graphics & Text | Print | Product List | Glossary On
Versions: 1 2 3 4 5 6 7 8 9 10 11 12 13 14 15 16 17 18 19 20 21 22 23 24 25 26 27 28 29 30 31 32 33 34 35 36 37 38 39 40 41 42 43 44 45 46 47 48 49 50
000
ASUS43 KOAX 030302
RWRNE

WEATHER ROUNDUP FOR NEBRASKA
NATIONAL WEATHER SERVICE OMAHA NE
1000 PM CDT SAT MAY 02 2015

NOTES: SATELLITE DATA IS BEING USED TO AUGMENT CLOUD COVER ABOVE
       12000 FEET.
       "FAIR" INDICATES FEW OR NO CLOUDS BELOW 12,000 FEET WITH NO
       SIGNIFICANT WEATHER AND/OR OBSTRUCTIONS TO VISIBILITY.

  * THESE STATIONS DO NOT REPORT WEATHER SUCH AS RAIN...SNOW OR FOG.

NEZ001>004-019>022-054>056-030400-
NEBRASKA PANHANDLE

CITY           SKY/WX    TMP DP  RH WIND       PRES   REMARKS
SCOTTSBLUFF    CLOUDY    66  40  38 SW10      29.82R
ALLIANCE       CLOUDY    69  39  33 SW20G32   29.79R
CHADRON        MOCLDY    57  42  57 CALM      29.74R
KIMBALL        CLOUDY    56  45  67 W5        29.89S
SIDNEY         CLOUDY    62  43  49 S8        29.87F
$$

NEZ057>060-069>072-079>082-030400-
SOUTHWEST NEBRASKA

CITY           SKY/WX    TMP DP  RH WIND       PRES   REMARKS
NORTH PLATTE   MOCLDY    60  45  57 CALM      29.76R
IMPERIAL       CLOUDY    71  38  29 W15G23    29.81R
MCCOOK         CLOUDY    70  47  43 S6        29.76R
$$

NEZ005>010-023>029-035>040-094-030400-
NORTH CENTRAL NEBRASKA

CITY           SKY/WX    TMP DP  RH WIND       PRES   REMARKS
VALENTINE      PTCLDY    67  42  40 CALM      29.70R
AINSWORTH      PTCLDY    64  47  53 NE9       29.71R
BROKEN BOW     PTCLDY    64  42  44 CALM      29.72R
ORD            PTCLDY    70  49  47 SE8       29.70R
$$

NEZ041-046>049-061>064-073>077-083>087-030400-
SOUTH CENTRAL NEBRASKA

CITY           SKY/WX    TMP DP  RH WIND       PRES   REMARKS
GRAND ISLAND   PTCLDY    72  54  53 S13       29.72R
AURORA         MOCLDY    73  54  50 S13G20    29.72R
HASTINGS       MOCLDY    73  53  49 S10G20    29.73R
HEBRON         MOCLDY    72  53  50 S13G18    29.75S
HOLDREGE       CLOUDY    69  46  44 SW5       29.74R
KEARNEY *      MOCLDY    72  46  40 SE7       29.73R
$$

NEZ011>018-030>034-042>045-030400-
NORTHEAST NEBRASKA

CITY           SKY/WX    TMP DP  RH WIND       PRES   REMARKS
NORFOLK        TSTM      68  56  65 SE13      29.71R
ALBION         TSTM      62  54  74 S8        29.73R
BLAIR          LGT RAIN  67  55  66 SE20G25   29.75F
COLUMBUS *     CLOUDY    64  52  63 CALM      29.78F
FREMONT        CLOUDY    68  59  72 NW9       29.77R
TEKAMAH        MOCLDY    66  57  72 SE16      29.75S
$$

NEZ050>053-065>068-078-088>093-030400-
SOUTHEAST NEBRASKA

CITY           SKY/WX    TMP DP  RH WIND       PRES   REMARKS
LINCOLN        CLOUDY    74  52  46 S17       29.76R
OMAHA EPPLEY   CLOUDY    67  57  70 SE16      29.76S
BEATRICE       MOCLDY    72  51  48 S12       29.78S
FALLS CITY     CLEAR     65  53  65 SE9       29.83R
NEBRASKA CITY  MOCLDY    66  49  54 S14       29.81R
PLATTSMOUTH    CLOUDY    68  52  56 S15       29.79S
$$

NEZ044-045-051>053-067-030400-
OMAHA AREA

CITY           SKY/WX    TMP DP  RH WIND       PRES   REMARKS
OMAHA EPPLEY   CLOUDY    67  57  70 SE16      29.76S
BLAIR          LGT RAIN  67  55  66 SE20G25   29.75F
FREMONT        CLOUDY    68  59  72 NW9       29.77R
OFFUTT AFB     CLOUDY    67  56  68 SE18G24   29.77R
PLATTSMOUTH    CLOUDY    68  52  56 S15       29.79S
WAHOO          FAIR      74  50  43 SE17G28   29.74S
$$


USA.gov is the U.S. government's official web portal to all federal, state and local government web resources and services.